G7GFU-13 Weather Reports


Display with metric or nautical units.
time (UTC)temp
F
wind
direction
speed
MPH
gust
MPH
rain 1hr
in
rain 24hr
in
rain mn
in
humidity
%
barometer
mb
20260502184503 60 0 0.0 0.0 0.00 0.00 0.00 64 1012.1
20260502183818 60 149 0.0 1.0 0.00 0.00 0.00 62 1012.2
20260502182703 60 159 0.0 2.0 0.00 0.00 0.00 62 1012.3
20260502181803 60 159 0.0 4.0 0.00 0.00 0.00 62 1012.3
20260502180903 61 171 1.0 3.0 0.00 0.00 0.00 60 1012.4
20260502163603 62 117 1.0 3.0 0.00 0.03 0.00 56 1012.7
20260502162703 63 148 2.0 4.0 0.00 0.03 0.00 55 1012.8
20260502161803 63 67 1.0 3.0 0.00 0.03 0.00 56 1013.0
20260502161117 64 139 2.0 3.0 0.00 0.03 0.00 56 1013.0
20260502160218 64 143 2.0 5.0 0.00 0.03 0.00 54 1013.1
20260502151803 65 94 1.0 3.0 0.00 0.03 0.00 52 1013.5
20260502150903 66 122 1.0 2.0 0.00 0.03 0.00 51 1013.5
20260502123603 63 148 2.0 5.0 0.00 0.03 0.00 61 1015.4
20260502122917 64 104 2.0 5.0 0.00 0.03 0.00 59 1015.5
20260502121803 63 153 1.0 5.0 0.00 0.03 0.00 61 1015.7
20260502120903 63 139 2.0 5.0 0.00 0.03 0.00 57 1015.8
20260502120219 62 35 2.0 6.0 0.00 0.03 0.00 60 1015.9
20260502115403 63 179 3.0 4.0 0.00 0.03 0.00 61 1016.0
20260502114503 64 150 1.0 5.0 0.00 0.03 0.00 62 1016.1
20260502113817 63 125 1.0 5.0 0.00 0.03 0.00 64 1016.1
20260502112916 63 172 2.0 2.0 0.00 0.03 0.00 60 1016.2
20260502111803 63 155 1.0 3.0 0.00 0.03 0.00 62 1016.2
20260502110903 62 161 1.0 4.0 0.00 0.03 0.00 64 1016.3
20260502110003 61 121 0.0 4.0 0.00 0.03 0.00 65 1016.3
20260502105403 60 160 1.0 3.0 0.00 0.03 0.00 66 1016.3
20260502104503 60 155 2.0 4.0 0.00 0.03 0.00 66 1016.4
20260502103603 60 90 1.0 4.0 0.00 0.03 0.00 67 1016.4
20260502102703 60 63 1.0 4.0 0.00 0.03 0.00 67 1016.5
20260502101803 61 160 1.0 4.0 0.00 0.03 0.00 67 1016.7
20260502101117 61 153 1.0 4.0 0.00 0.03 0.00 68 1016.8
20260502090903 58 109 1.0 3.0 0.00 0.03 0.00 76 1016.9
20260502071117 53 100 1.0 2.0 0.00 0.03 0.00 86 1017.2
20260502070003 53 341 0.0 1.0 0.00 0.03 0.00 88 1017.1
20260502065403 52 341 0.0 2.0 0.00 0.03 0.00 89 1017.1
20260502064718 51 341 0.0 1.0 0.00 0.03 0.00 92 1017.1
20260502063604 50 341 0.0 1.0 0.00 0.03 0.00 92 1017.1
20260502062703 50 0 0.0 2.0 0.00 0.03 0.00 93 1017.1
20260502061803 49 0 0.0 1.0 0.00 0.03 0.00 94 1017.1
20260502060903 50 0 0.0 0.0 0.00 0.03 0.00 95 1017.1
20260502060003 47 0 0.0 1.0 0.00 0.03 0.00 97 1017.0
20260502055618 46 0 0.0 0.0 0.00 0.03 0.00 97 1017.0
20260502054503 46 0 0.0 0.0 0.00 0.03 0.00 97 1017.0
20260502053817 46 0 0.0 0.0 0.00 0.03 0.00 97 1017.0
20260502052703 46 0 0.0 0.0 0.00 0.03 0.00 97 1017.0
20260502051803 45 0 0.0 0.0 0.00 0.03 0.00 97 1017.0
20260502050904 44 0 0.0 0.0 0.00 0.03 0.00 97 1017.0
20260502050218 44 0 0.0 0.0 0.00 0.03 0.00 97 1017.0
20260502045403 45 0 0.0 0.0 0.00 0.03 0.00 97 1017.0
20260502044503 45 0 0.0 0.0 0.00 0.03 0.00 97 1017.0
20260502043816 45 0 0.0 0.0 0.00 0.03 0.00 97 1017.0
20260502042703 45 0 0.0 0.0 0.00 0.03 0.00 97 1017.0
20260502041803 44 0 0.0 0.0 0.00 0.03 0.00 97 1017.0
20260502040903 44 0 0.0 0.0 0.00 0.03 0.00 97 1017.1
20260502040218 44 0 0.0 0.0 0.00 0.03 0.00 97 1017.2
20260502035403 45 0 0.0 0.0 0.00 0.03 0.00 97 1017.2
20260502034503 45 0 0.0 0.0 0.00 0.03 0.00 97 1017.2
20260502033603 45 0 0.0 0.0 0.00 0.03 0.00 97 1017.3
20260502032703 46 0 0.0 0.0 0.00 0.03 0.00 97 1017.2
20260502031803 45 0 0.0 0.0 0.00 0.03 0.00 97 1017.2
20260502030903 46 0 0.0 0.0 0.00 0.03 0.00 97 1017.3
20260502030003 46 0 0.0 0.0 0.00 0.03 0.00 97 1017.3
20260502025403 46 0 0.0 0.0 0.00 0.03 0.00 97 1017.3
20260502024503 46 0 0.0 0.0 0.00 0.03 0.00 97 1017.2
20260502023603 46 0 0.0 0.0 0.00 0.03 0.00 97 1017.3
20260502022703 46 0 0.0 0.0 0.00 0.03 0.00 97 1017.4
20260502021803 47 0 0.0 0.0 0.00 0.03 0.00 97 1017.5
20260502020903 47 0 0.0 0.0 0.00 0.03 0.00 97 1017.6
20260502020003 47 0 0.0 0.0 0.00 0.03 0.00 97 1017.7
20260502015403 47 0 0.0 0.0 0.00 0.03 0.00 97 1017.8
20260502014503 47 0 0.0 0.0 0.00 0.03 0.00 97 1017.9
20260502013603 47 0 0.0 0.0 0.00 0.03 0.00 96 1017.9
20260502012703 46 0 0.0 0.0 0.00 0.03 0.00 96 1018.0
20260502011803 46 0 0.0 0.0 0.00 0.03 0.00 96 1018.1
20260502011117 47 0 0.0 0.0 0.00 0.03 0.00 96 1018.1
20260502010003 47 0 0.0 0.0 0.00 0.03 0.00 96 1018.2
20260502005403 47 0 0.0 0.0 0.00 0.03 0.00 96 1018.2
20260502004503 48 0 0.0 0.0 0.00 0.03 0.00 96 1018.3
20260502003603 48 0 0.0 0.0 0.00 0.03 0.00 96 1018.3
20260502002703 48 0 0.0 0.0 0.00 0.03 0.00 96 1018.3
20260502001803 48 0 0.0 0.0 0.00 0.03 0.00 96 1018.4
20260502001117 48 0 0.0 0.0 0.00 0.03 0.00 96 1018.4
20260502000218 48 0 0.0 0.0 0.00 0.03 0.00 96 1018.4
20260501235618 48 0 0.0 0.0 0.00 0.03 0.00 96 1018.4
20260501234503 48 0 0.0 0.0 0.00 0.03 0.00 96 1018.4
20260501233603 49 0 0.0 0.0 0.00 0.03 0.00 96 1018.5
20260501232703 49 0 0.0 0.0 0.00 0.03 0.00 96 1018.5
20260501232017 49 0 0.0 0.0 0.00 0.03 0.00 96 1018.5
20260501230903 49 0 0.0 0.0 0.00 0.03 0.00 95 1018.5
20260501230003 49 0 0.0 0.0 0.00 0.03 0.00 95 1018.6
20260501225403 49 0 0.0 0.0 0.00 0.03 0.03 95 1018.6
20260501224503 49 0 0.0 0.0 0.00 0.03 0.03 95 1018.5
20260501223603 50 0 0.0 0.0 0.00 0.03 0.03 95 1018.5
20260501222917 50 0 0.0 0.0 0.00 0.03 0.03 95 1018.6
20260501221803 51 0 0.0 0.0 0.00 0.03 0.03 95 1018.8
20260501220903 50 0 0.0 0.0 0.00 0.03 0.03 95 1018.8
20260501220217 50 0 0.0 0.0 0.00 0.03 0.03 95 1018.8
20260501215617 51 0 0.0 0.0 0.00 0.03 0.03 94 1018.9
20260501214503 51 0 0.0 0.0 0.00 0.03 0.03 94 1018.9
20260501213603 51 0 0.0 0.0 0.00 0.03 0.03 94 1018.9
20260501212703 51 0 0.0 0.0 0.00 0.03 0.03 94 1018.9
20260501211803 52 0 0.0 0.0 0.00 0.03 0.03 94 1018.8
20260501210903 52 0 0.0 0.0 0.00 0.03 0.03 94 1018.9
20260501210003 53 0 0.0 0.0 0.00 0.03 0.03 94 1018.9
20260501205403 53 0 0.0 0.0 0.00 0.03 0.03 94 1018.9
20260501204503 53 0 0.0 1.0 0.00 0.03 0.03 94 1018.9
20260501203603 53 0 0.0 0.0 0.00 0.03 0.03 94 1018.9
20260501202703 53 0 0.0 0.0 0.00 0.03 0.03 94 1018.9
20260501201803 53 0 0.0 0.0 0.00 0.03 0.03 94 1018.9
20260501201117 53 0 0.0 0.0 0.00 0.03 0.03 94 1018.9
20260501200003 53 0 0.0 0.0 0.00 0.03 0.03 94 1018.9
20260501195403 53 337 0.0 1.0 0.00 0.03 0.03 93 1018.9
20260501194503 54 337 1.0 2.0 0.00 0.03 0.03 93 1018.9
20260501193603 54 337 1.0 2.0 0.00 0.03 0.03 93 1018.9
20260501192703 54 336 1.0 2.0 0.00 0.03 0.03 93 1018.9
20260501191803 54 0 0.0 2.0 0.00 0.03 0.03 92 1018.9
20260501191117 54 0 0.0 2.0 0.00 0.03 0.03 92 1018.9
20260501190003 55 0 0.0 0.0 0.01 0.03 0.03 92 1018.9
20260501185403 54 0 0.0 0.0 0.01 0.03 0.03 92 1018.8